sat.trackr.live / text

‹ back to catalog

STARLINK-34908

NORAD 65329 · 2025-189G

PAYLOAD ACTIVE UNKNOWN

§ Identity

Operator
Country
US
Launch date
2025-08-27
Launch site
AFETR
Launch vehicle
Mass (kg)
RCS (m²)

Purposes: comms

External: N2YO · Heavens-Above · Gunter

§ Orbital elements

Epoch: 2026-09-20T13:02:43.812960Z

Period
93.85 min
Inclination
53.1591°
Eccentricity
0.0000771
Mean motion
15.34402573 rev/d
Perigee alt
462.2 km
Apogee alt
463.2 km
Semi-major
6,840.8 km
B*
4.7747e-4
RAAN
19.2607°
Arg perigee
72.8608°
Mean anomaly
287.2479°
Rev number
6,097

§ Raw data

STARLINK-349081 65329U 25189G   26263.54356265  .00015791  00000+0  47747-3 0  99992 65329  53.1591  19.2607 0000771  72.8608 287.2479 15.34402573 60977

JSON: /api/v1/satellites/65329 · /tle

For live sub-satellite position, see the globe view (requires WebGL).

§ Visibility from observer

Set your observer location to see the next 7 days of passes ≥ 10°. The values pass through the URL so the page stays shareable.

No JS? Fill the form by hand. The geolocation button needs JavaScript.